Flag for China Weather past 2 weeks in Shenzhen, Guangdong, China

Now
81 °F

Broken clouds.


Feels Like: 87 °F
Forecast: 81 / 91 °F
Wind: 6 mph from East

Location: Shenzhen Airport

Current Time: Jul 25, 2014 at 7:04:27 AM

Latest Report: Jul 25, 2014 at 6:00 AM


Visibility: 4 mi

Pressure: 29.62 "Hg

Humidity: 89%

Dew point: 77 °F

Location of ShenzhenLocation

Historic Weather in Shenzhen — Graph

°F

Shenzhen temperature yesterday

Maximum temperature yesterday: 90 °F (at 11:00 AM)
Minimum temperature yesterday: 77 °F (at 10:00 PM)
Average temperature yesterday: 87 °F

Past Weeks' High & Low Weather Summary

 TemperatureHumidityPressure
High93 °F (Jul 17, 12:00 PM)94% (Jul 10, 6:00 AM)29.83 "Hg (Jul 10, 6:00 AM)
Low77 °F (Jul 24, 10:00 PM)53% (Jul 17, 4:00 PM)29.42 "Hg (Jul 23, 5:00 PM)
Average86 °F79%29.69 "Hg
* Reported Jul 10 6:00 AM — Jul 25 6:00 AM, Shenzhen, Weather by CustomWeather, © 2014

Note: Actual official high and low records may vary slightly from our data, if they occured in-between our weather recording intervals... More about our weather records

Advertising

Shenzhen weather history for previous 24 hours

 ConditionsComfort  
Time TempWeatherWind HumidityBarometerVisibility
6:00 AM
Jul 25
81 °FBroken clouds.6 mph89%29.62 "Hg4 mi
5:00 AM82 °FPassing clouds.1 mph79%29.65 "Hg5 mi
4:00 AM81 °FPassing clouds.1 mph84%29.65 "Hg5 mi
3:00 AM81 °FPassing clouds.3 mph84%29.62 "HgN/A
2:00 AM81 °FPassing clouds.1 mph84%29.65 "HgN/A
1:00 AM81 °FPassing clouds.6 mph84%29.68 "HgN/A
12:00 AM79 °FPassing clouds.3 mph89%29.68 "HgN/A
11:00 PM
Jul 24
79 °FThunderstorms. Passing clouds.13 mph94%29.65 "Hg5 mi
10:00 PM77 °FThunderstorms. Passing clouds.6 mph94%29.68 "Hg2 mi
9:00 PM79 °FThunderstorms. Partly cloudy.22 mph89%29.65 "Hg3 mi
8:00 PM86 °FPassing clouds.17 mph89%29.59 "HgN/A
7:00 PM86 °FSunny.15 mph89%29.53 "Hg10 mi
6:00 PM88 °FSunny.17 mph79%29.50 "Hg10 mi
5:00 PM90 °FSunny.17 mph79%29.47 "Hg10 mi
4:00 PM90 °FSunny.15 mph79%29.50 "Hg10 mi
3:00 PM90 °FSunny.17 mph79%29.50 "Hg10 mi
2:00 PM90 °FSunny.15 mph84%29.53 "Hg10 mi
1:00 PM90 °FPassing clouds.15 mph84%29.56 "HgN/A
12:00 PM90 °FPassing clouds.13 mph79%29.56 "HgN/A
11:00 AM90 °FSunny.10 mph79%29.56 "Hg10 mi
10:00 AM88 °FClear.8 mph79%29.56 "Hg5 mi
9:00 AM86 °FPassing clouds.8 mph84%29.53 "HgN/A
8:00 AM86 °FScattered clouds.8 mph84%29.53 "HgN/A
7:00 AM86 °FThunderstorms. Partly sunny.10 mph84%29.53 "HgN/A
Weather by CustomWeather, © 2014

See weather overviewHow to use our weather pages